Location: Copper Breaks State Park
(34.1132°N, 99.7492°W)
Time: 14:22:04
(UTC-05:00)

SL-16 R/B - Visible Passes

Search period start: 28 June 2017 00:00
Search period end: 08 July 2017 00:00
Orbit: 986 x 1006 km, 99.3° (Epoch: 27 June)

Date Brightness Start Highest point End Pass type
(mag) Time Alt. Az. Time Alt. Az. Time Alt. Az.
28 Jun 5.0 02:24:30 10° E 02:27:09 13° ENE 02:29:48 10° NE visible
28 Jun 2.4 04:06:45 32° SSE 04:09:52 87° WSW 04:16:10 10° NNW visible
29 Jun 4.4 02:52:57 11° ESE 02:57:32 24° ENE 03:02:20 10° NNE visible
29 Jun 2.8 04:38:03 30° SSW 04:40:45 48° W 04:46:46 10° NNW visible
30 Jun 3.5 03:24:16 20° SE 03:28:05 42° ENE 03:33:55 10° N visible
30 Jun 3.5 05:09:22 20° SW 05:11:45 26° W 05:16:50 10° NW visible
01 Jul 5.3 02:15:46 10° ENE 02:16:13 10° ENE 02:16:41 10° NE visible
01 Jul 2.6 03:55:35 31° SSE 03:58:46 77° ENE 04:05:02 10° N visible
01 Jul 4.2 05:40:41 11° WSW 05:42:54 13° W 05:45:39 10° WNW visible
02 Jul 4.7 02:42:19 10° ESE 02:46:33 19° ENE 02:50:47 10° NNE visible
02 Jul 2.6 04:26:53 34° SSW 04:29:36 59° W 04:35:46 10° NNW visible
03 Jul 3.9 03:13:07 18° ESE 03:17:02 35° ENE 03:22:35 10° N visible
03 Jul 3.3 04:58:12 25° SW 05:00:33 32° W 05:06:04 10° NW visible
04 Jul 2.9 03:44:25 29° SE 03:47:41 62° ENE 03:53:50 10° N visible
04 Jul 4.0 05:29:31 14° WSW 05:31:39 17° W 05:35:31 10° NW visible
05 Jul 4.9 02:32:04 10° E 02:35:35 16° ENE 02:39:05 10° NNE visible
05 Jul 2.4 04:15:44 36° S 04:18:27 74° WSW 04:24:43 10° NNW visible
06 Jul 4.2 03:01:58 15° ESE 03:06:00 28° ENE 03:11:12 10° N visible
06 Jul 3.0 04:47:04 30° SW 04:49:22 40° W 04:55:12 10° NNW visible
07 Jul 3.2 03:33:17 26° SE 03:36:36 51° ENE 03:42:37 10° N visible
07 Jul 3.7 05:18:23 18° WSW 05:20:25 21° W 05:25:03 10° NW visible
